Date String (YYYY-MM-DD hh:mm:ss) UTC,Instrument flags,Ambient pressure (hPa),Sample flow (lpm),Bypass flow (lpm),Sample temperature (°C),Ambient temperature (°C),ASC tube jacket temperature (°C),LED temperature (°C),Box temperature (°C),Sample RH (%),Span deviation,Mass concentration (μg/m³),Mass concentration (μg/m³),Mass concentration (μg/m³)
DateTimeUTC,F1_M11,P_M11,Q1_M11,Q2_M11,T1_M11,T2_M11,T3_M11,T4_M11,T5_M11,U1_M11,ZSPAN_M11,X0_M11,X2_M11,X1_M11
2021-08-31 01:00:00,,0823.6,5.01,0.00,29.1,25.7,00.0,38.2,30.5,13.7,0003.2,0045.63,0029.73,0028.15
2021-08-31 01:01:00,,0823.6,5.00,0.00,29.1,26.1,00.0,38.2,30.6,13.7,0003.0,0046.85,0029.78,0028.13
2021-08-31 01:02:00,,0823.6,5.00,0.00,29.0,26.6,00.0,38.2,30.7,13.7,0002.8,0048.39,0029.84,0028.15
2021-08-31 01:03:00,,0823.6,4.99,0.00,29.1,27.1,00.0,38.2,30.8,13.7,0002.7,0049.17,0029.84,0028.19
2021-08-31 01:04:00,,0823.6,5.00,0.00,29.1,27.4,00.0,38.1,30.9,13.7,0003.0,0049.38,0029.80,0028.17
2021-08-31 01:05:00,,0823.6,4.99,0.00,29.2,27.8,00.0,38.2,31.0,13.6,0002.9,0048.96,0029.77,0028.17
2021-08-31 01:06:00,,0823.6,5.00,0.00,29.2,28.0,00.0,38.2,31.1,13.5,0002.7,0048.33,0029.77,0028.18
2021-08-31 01:07:00,,0823.6,5.00,0.00,29.3,28.3,00.0,38.2,31.2,13.5,0002.8,0046.88,0029.84,0028.24
2021-08-31 01:08:00,,0823.6,4.99,0.00,29.3,28.5,00.0,38.2,31.2,13.5,0002.7,0045.70,0029.83,0028.25
2021-08-31 01:09:00,,0823.7,5.00,0.00,29.4,28.6,00.0,38.2,31.3,13.4,0002.6,0045.48,0029.83,0028.29
2021-08-31 01:10:00,,0823.7,5.02,0.00,29.4,27.8,00.0,38.3,31.1,13.3,0002.7,0045.29,0029.93,0028.35
2021-08-31 01:11:00,,0823.6,4.99,0.00,29.2,25.8,00.0,38.2,30.5,13.3,0002.6,0044.11,0029.90,0028.33
2021-08-31 01:12:00,,0823.7,5.01,0.00,29.1,25.5,00.0,38.2,30.4,13.4,0002.8,0042.40,0029.81,0028.31
2021-08-31 01:13:00,,0823.7,5.00,0.00,29.0,25.9,00.0,38.2,30.5,13.5,0002.9,0041.42,0029.70,0028.27
2021-08-31 01:14:00,,0823.7,5.00,0.00,29.0,26.4,00.0,38.2,30.6,13.4,0002.9,0040.69,0029.71,0028.24
2021-08-31 01:15:00,,0823.7,5.00,0.00,29.0,26.9,00.0,38.1,30.7,13.3,0002.6,0040.59,0029.65,0028.19
2021-08-31 01:16:00,,0823.7,5.00,0.00,29.0,27.3,00.0,38.1,30.8,13.2,0002.5,0040.93,0029.65,0028.15
2021-08-31 01:17:00,,0823.7,4.99,0.00,29.1,27.6,00.0,38.1,30.9,13.1,0002.7,0041.08,0029.62,0028.09
2021-08-31 01:18:00,,0823.7,5.01,0.00,29.1,27.9,00.0,38.1,31.0,13.0,0002.6,0042.24,0029.55,0028.05
2021-08-31 01:19:00,,0823.7,5.00,0.00,29.2,28.1,00.0,38.2,31.1,13.0,0002.5,0042.48,0029.51,0028.01
2021-08-31 01:20:00,,0823.7,5.00,0.00,29.3,28.3,00.0,38.2,31.2,12.9,0002.5,0043.56,0029.40,0027.93
2021-08-31 01:21:00,,0823.7,5.00,0.00,29.3,28.5,00.0,38.2,31.2,12.9,0002.4,0043.57,0029.30,0027.84
2021-08-31 01:22:00,,0823.7,5.00,0.00,29.4,28.6,00.0,38.2,31.3,12.7,0002.4,0043.04,0029.28,0027.81
2021-08-31 01:23:00,,0823.7,5.00,0.00,29.4,27.4,00.0,38.3,31.0,12.8,0002.3,0042.68,0029.26,0027.81
2021-08-31 01:24:00,,0823.7,5.01,0.00,29.2,25.6,00.0,38.2,30.5,12.9,0002.2,0042.01,0029.30,0027.83
2021-08-31 01:25:00,,0823.7,5.01,0.00,29.1,25.5,00.0,38.2,30.5,13.3,0002.0,0042.10,0029.28,0027.81
2021-08-31 01:26:00,,0823.7,4.99,0.00,29.0,25.9,00.0,38.2,30.5,14.0,0002.0,0041.95,0029.32,0027.82
2021-08-31 01:27:00,,0823.7,5.01,0.00,29.0,26.4,00.0,38.1,30.6,14.2,0002.0,0043.04,0029.39,0027.84
2021-08-31 01:28:00,,0823.7,4.99,0.00,29.0,26.9,00.0,38.1,30.7,14.2,0001.9,0043.63,0029.49,0027.91
2021-08-31 01:29:00,,0823.7,5.01,0.00,29.0,27.3,00.0,38.1,30.8,14.2,0001.9,0042.93,0029.55,0027.91
2021-08-31 01:30:00,,0823.7,4.99,0.00,29.1,27.6,00.0,38.1,30.9,13.9,0002.2,0043.42,0029.60,0027.91
2021-08-31 01:31:00,,0823.7,5.00,0.00,29.1,27.9,00.0,38.1,31.0,14.2,0002.3,0042.55,0029.70,0027.91
2021-08-31 01:32:00,,0823.7,4.99,0.00,29.2,28.1,00.0,38.2,31.1,13.8,0002.4,0042.48,0029.77,0027.94
2021-08-31 01:33:00,,0823.7,5.00,0.00,29.3,28.3,00.0,38.2,31.2,13.6,0002.3,0044.00,0029.82,0027.97
2021-08-31 01:34:00,,0823.7,5.01,0.00,29.3,28.5,00.0,38.2,31.2,13.4,0002.2,0045.64,0029.83,0027.94
2021-08-31 01:35:00,,0823.8,4.99,0.00,29.4,28.6,00.0,38.2,31.3,13.2,0002.4,0046.64,0029.78,0027.91
2021-08-31 01:36:00,,0823.7,5.01,0.00,29.4,28.0,00.0,38.3,31.1,13.2,0002.4,0047.08,0029.81,0027.90
2021-08-31 01:37:00,,0823.7,5.00,0.00,29.2,26.0,00.0,38.2,30.5,13.4,0002.2,0047.05,0029.78,0027.90
2021-08-31 01:38:00,,0823.7,5.00,0.00,29.1,25.4,00.0,38.2,30.3,13.7,0002.2,0045.48,0029.70,0027.89
2021-08-31 01:39:00,,0823.7,5.00,0.00,29.0,25.8,00.0,38.2,30.5,13.8,0002.2,0045.52,0029.66,0027.89
2021-08-31 01:40:00,,0823.7,5.00,0.00,29.0,26.2,00.0,38.2,30.6,14.0,0002.2,0046.26,0029.74,0027.92
2021-08-31 01:41:00,,0823.8,4.99,0.00,29.0,26.7,00.0,38.1,30.7,13.5,0002.1,0045.57,0029.75,0027.93
2021-08-31 01:42:00,,0823.8,5.00,0.00,29.0,27.1,00.0,38.1,30.8,13.3,0002.0,0044.75,0029.68,0027.95
2021-08-31 01:43:00,,0823.7,5.00,0.00,29.0,27.5,00.0,38.1,30.9,13.4,0001.9,0044.71,0029.65,0027.98
2021-08-31 01:44:00,,0823.7,5.01,0.00,29.1,27.8,00.0,38.1,30.9,13.2,0001.9,0043.37,0029.73,0028.04
2021-08-31 01:45:00,,0823.8,5.00,0.00,29.1,28.0,00.0,38.1,31.0,13.1,0002.1,0041.93,0029.81,0028.11
2021-08-31 01:46:00,,0823.7,5.00,0.00,29.2,28.2,00.0,38.2,31.1,13.1,0002.2,0041.07,0029.88,0028.17
2021-08-31 01:47:00,,0823.7,5.01,0.00,29.2,28.4,00.0,38.2,31.1,13.4,0002.2,0040.72,0029.90,0028.23
2021-08-31 01:48:00,,0823.8,5.00,0.00,29.3,28.5,00.0,38.2,31.2,13.3,0002.4,0041.40,0029.98,0028.28
2021-08-31 01:49:00,,0823.7,4.99,0.00,29.4,28.6,00.0,38.2,31.3,13.3,0002.5,0042.17,0030.05,0028.31
2021-08-31 01:50:00,,0823.8,5.02,0.00,29.4,27.8,00.0,38.3,31.1,13.5,0002.4,0042.45,0030.04,0028.30
2021-08-31 01:51:00,,0823.7,5.00,0.00,29.2,26.3,00.0,38.3,30.7,13.8,0002.2,0041.04,0029.95,0028.31
2021-08-31 01:52:00,,0823.8,5.00,0.00,29.2,26.4,00.0,38.3,30.7,13.6,0002.0,0042.37,0029.94,0028.33
2021-08-31 01:53:00,,0823.7,5.00,0.00,29.1,26.7,00.0,38.2,30.8,13.8,0002.1,0043.53,0030.05,0028.38
2021-08-31 01:54:00,,0823.8,4.99,0.00,29.1,27.1,00.0,38.2,30.8,14.2,0002.0,0044.04,0030.16,0028.43
2021-08-31 01:55:00,,0823.7,5.01,0.00,29.1,27.5,00.0,38.2,30.9,14.7,0002.0,0044.44,0030.15,0028.44
2021-08-31 01:56:00,,0823.7,5.00,0.00,29.2,27.8,00.0,38.2,31.0,14.4,0001.9,0045.71,0030.14,0028.44
2021-08-31 01:57:00,,0823.7,5.01,0.00,29.2,28.0,00.0,38.2,31.1,14.1,0001.8,0046.36,0030.16,0028.45
2021-08-31 01:58:00,,0823.8,4.99,0.00,29.3,28.2,00.0,38.2,31.1,14.0,0001.8,0047.03,0030.23,0028.49
2021-08-31 01:59:00,,0823.7,5.01,0.00,29.3,28.4,00.0,38.3,31.2,13.8,0001.9,0046.48,0030.25,0028.49
